• In Deutschland
  • Länderverzeichnis
  • Für 7 Tage
  • Wassertemperatur
  • Satellitenkarten
  • Wetterkarte
  • Widgets
  • user-avatar
    Anmelden

    Stündliche Wetter Gaggenau

    Heute, 18 Juli, Mittwoch

    Zeit Temperatur Niederschläge Wind Luftdruck Luftfeuchtigkeit
    00:00 +20°C° 0,1 mm 1 m/S 747 mmHg 83%
    01:00 +19°C° 0 mm 1 m/S 747 mmHg 83%
    02:00 +19°C° 0 mm 1 m/S 747 mmHg 84%
    03:00 +19°C° 0 mm 1 m/S 747 mmHg 84%
    04:00 +18°C° 0 mm 1 m/S 747 mmHg 85%
    05:00 +19°C° 0 mm 1 m/S 748 mmHg 81%
    06:00 +20°C° 0 mm 1 m/S 748 mmHg 78%
    07:00 +22°C° 0 mm 1 m/S 748 mmHg 71%
    08:00 +24°C° 0 mm 1 m/S 748 mmHg 64%
    09:00 +25°C° 0 mm 1 m/S 748 mmHg 57%
    10:00 +27°C° 0 mm 2 m/S 748 mmHg 50%
    11:00 +28°C° 0 mm 2 m/S 748 mmHg 47%
    12:00 +28°C° 0 mm 2 m/S 748 mmHg 44%
    13:00 +29°C° 0 mm 2 m/S 748 mmHg 41%
    14:00 +29°C° 0 mm 2 m/S 747 mmHg 41%
    15:00 +29°C° 0 mm 2 m/S 747 mmHg 41%
    16:00 +29°C° 0 mm 2 m/S 747 mmHg 41%
    17:00 +28°C° 0 mm 2 m/S 747 mmHg 47%
    18:00 +27°C° 0 mm 2 m/S 747 mmHg 52%
    19:00 +26°C° 0 mm 2 m/S 747 mmHg 58%
    20:00 +24°C° 0 mm 2 m/S 747 mmHg 61%
    21:00 +21°C° 0 mm 2 m/S 747 mmHg 64%
    22:00 +21°C° 0 mm 1 m/S 748 mmHg 67%
    23:00 +20°C° 0 mm 1 m/S 748 mmHg 69%

    Morgen, 19 Juli, Donnerstag

    Zeit Temperatur Niederschläge Wind Luftdruck Luftfeuchtigkeit
    00:00 +19°C° 0 mm 1 m/S 748 mmHg 71%
    01:00 +19°C° 0 mm 1 m/S 748 mmHg 72%
    02:00 +18°C° 0 mm 1 m/S 748 mmHg 75%
    03:00 +18°C° 0 mm 1 m/S 748 mmHg 77%
    04:00 +18°C° 0 mm 1 m/S 748 mmHg 79%
    05:00 +19°C° 0 mm 1 m/S 748 mmHg 76%
    06:00 +20°C° 0 mm 1 m/S 748 mmHg 73%
    07:00 +21°C° 0 mm 1 m/S 748 mmHg 70%
    08:00 +23°C° 0 mm 1 m/S 748 mmHg 64%
    09:00 +25°C° 0 mm 2 m/S 748 mmHg 57%
    10:00 +27°C° 0 mm 2 m/S 748 mmHg 50%
    11:00 +28°C° 0 mm 2 m/S 748 mmHg 47%
    12:00 +29°C° 0 mm 2 m/S 747 mmHg 44%
    13:00 +29°C° 0 mm 2 m/S 747 mmHg 41%
    14:00 +30°C° 0 mm 2 m/S 747 mmHg 41%
    15:00 +30°C° 0 mm 2 m/S 747 mmHg 41%
    16:00 +30°C° 0 mm 2 m/S 747 mmHg 41%
    17:00 +29°C° 0 mm 2 m/S 747 mmHg 46%
    18:00 +28°C° 0 mm 2 m/S 746 mmHg 50%
    19:00 +27°C° 0 mm 2 m/S 746 mmHg 55%
    20:00 +25°C° 0 mm 2 m/S 746 mmHg 59%
    21:00 +23°C° 0 mm 2 m/S 747 mmHg 62%
    22:00 +22°C° 0 mm 1 m/S 747 mmHg 65%
    23:00 +21°C° 0 mm 1 m/S 747 mmHg 68%

    übermorgen, 20 Juli, Freitag

    Zeit Temperatur Niederschläge Wind Luftdruck Luftfeuchtigkeit
    00:00 +20°C° 0 mm 1 m/S 747 mmHg 70%
    01:00 +20°C° 0 mm 1 m/S 746 mmHg 73%
    02:00 +19°C° 0 mm 1 m/S 746 mmHg 74%
    03:00 +19°C° 0 mm 1 m/S 746 mmHg 76%
    04:00 +19°C° 0 mm 1 m/S 746 mmHg 77%
    05:00 +20°C° 0 mm 1 m/S 746 mmHg 75%
    06:00 +21°C° 0 mm 1 m/S 746 mmHg 72%
    07:00 +22°C° 0 mm 1 m/S 746 mmHg 69%
    08:00 +24°C° 0 mm 1 m/S 746 mmHg 62%
    09:00 +26°C° 0 mm 1 m/S 745 mmHg 55%
    10:00 +28°C° 0 mm 2 m/S 745 mmHg 48%
    11:00 +29°C° 0,1 mm 2 m/S 745 mmHg 46%
    12:00 +30°C° 0,1 mm 2 m/S 745 mmHg 44%
    13:00 +31°C° 0,1 mm 2 m/S 744 mmHg 42%
    14:00 +31°C° 0,1 mm 1 m/S 744 mmHg 42%
    15:00 +31°C° 0,1 mm 1 m/S 744 mmHg 43%
    16:00 +31°C° 0,1 mm 1 m/S 743 mmHg 44%
    17:00 +30°C° 0,1 mm 1 m/S 743 mmHg 50%
    18:00 +28°C° 0,1 mm 1 m/S 743 mmHg 56%
    19:00 +27°C° 0,1 mm 1 m/S 743 mmHg 62%
    20:00 +26°C° 1 mm 1 m/S 743 mmHg 69%
    21:00 +24°C° 1 mm 1 m/S 743 mmHg 76%
    22:00 +22°C° 1 mm 1 m/S 743 mmHg 83%
    23:00 +22°C° 0,4 mm 1 m/S 743 mmHg 85%

    21 Juli, Samstag

    Zeit Temperatur Niederschläge Wind Luftdruck Luftfeuchtigkeit
    00:00 +21°C° 0,4 mm 1 m/S 743 mmHg 87%
    01:00 +21°C° 0,4 mm 1 m/S 743 mmHg 88%
    02:00 +20°C° 0,3 mm 1 m/S 743 mmHg 90%
    03:00 +19°C° 0,3 mm 2 m/S 743 mmHg 91%
    04:00 +19°C° 0,3 mm 2 m/S 743 mmHg 92%
    05:00 +19°C° 0 mm 2 m/S 743 mmHg 90%
    06:00 +19°C° 0 mm 2 m/S 743 mmHg 89%
    07:00 +20°C° 0 mm 2 m/S 743 mmHg 88%
    08:00 +21°C° 0 mm 3 m/S 743 mmHg 80%
    09:00 +24°C° 0 mm 3 m/S 744 mmHg 72%
    10:00 +25°C° 0 mm 3 m/S 744 mmHg 64%
    11:00 +26°C° 0,1 mm 4 m/S 744 mmHg 60%
    12:00 +27°C° 0,1 mm 4 m/S 744 mmHg 56%
    13:00 +27°C° 0,1 mm 4 m/S 744 mmHg 52%
    14:00 +27°C° 0,1 mm 4 m/S 744 mmHg 50%
    15:00 +28°C° 0,1 mm 4 m/S 744 mmHg 48%
    16:00 +28°C° 0,1 mm 4 m/S 744 mmHg 46%
    17:00 +27°C° 0 mm 3 m/S 744 mmHg 51%
    18:00 +26°C° 0 mm 3 m/S 744 mmHg 56%
    19:00 +25°C° 0 mm 3 m/S 744 mmHg 60%
    20:00 +22°C° 0 mm 3 m/S 744 mmHg 67%
    21:00 +20°C° 0 mm 2 m/S 745 mmHg 74%
    22:00 +19°C° 0 mm 2 m/S 745 mmHg 80%
    23:00 +18°C° 0 mm 2 m/S 745 mmHg 84%

    22 Juli, Sonntag

    Zeit Temperatur Niederschläge Wind Luftdruck Luftfeuchtigkeit
    00:00 +17°C° 0 mm 2 m/S 745 mmHg 87%
    01:00 +17°C° 0 mm 2 m/S 745 mmHg 90%
    02:00 +17°C° 0 mm 2 m/S 745 mmHg 91%
    03:00 +16°C° 0 mm 2 m/S 746 mmHg 92%
    04:00 +16°C° 0 mm 2 m/S 746 mmHg 94%
    05:00 +16°C° 0 mm 2 m/S 746 mmHg 91%
    06:00 +17°C° 0 mm 2 m/S 746 mmHg 88%
    07:00 +18°C° 0 mm 2 m/S 746 mmHg 85%
    08:00 +19°C° 0,1 mm 3 m/S 746 mmHg 78%
    09:00 +21°C° 0,1 mm 3 m/S 746 mmHg 71%
    10:00 +22°C° 0,1 mm 3 m/S 746 mmHg 64%
    11:00 +24°C° 0,1 mm 3 m/S 746 mmHg 58%
    12:00 +25°C° 0,1 mm 4 m/S 746 mmHg 53%
    13:00 +26°C° 0,1 mm 4 m/S 746 mmHg 47%
    14:00 +27°C° 0 mm 4 m/S 746 mmHg 46%
    15:00 +27°C° 0 mm 4 m/S 746 mmHg 45%
    16:00 +27°C° 0 mm 3 m/S 746 mmHg 44%
    17:00 +26°C° 0 mm 3 m/S 746 mmHg 50%
    18:00 +25°C° 0 mm 2 m/S 746 mmHg 55%
    19:00 +24°C° 0 mm 2 m/S 747 mmHg 61%
    20:00 +23°C° 0 mm 1 m/S 747 mmHg 65%
    21:00 +21°C° 0 mm 1 m/S 747 mmHg 70%
    22:00 +19°C° 0 mm 1 m/S 748 mmHg 75%
    23:00 +19°C° 0 mm 1 m/S 748 mmHg 77%

    23 Juli, Montag

    Zeit Temperatur Niederschläge Wind Luftdruck Luftfeuchtigkeit
    00:00 +18°C° 0 mm 1 m/S 748 mmHg 79%
    01:00 +16°C° 0 mm 1 m/S 748 mmHg 80%
    02:00 +16°C° 0 mm 1 m/S 748 mmHg 82%
    03:00 +16°C° 0 mm 1 m/S 748 mmHg 83%
    04:00 +15°C° 0 mm 1 m/S 748 mmHg 85%
    05:00 +16°C° 0 mm 1 m/S 748 mmHg 81%
    06:00 +19°C° 0 mm 1 m/S 748 mmHg 77%
    07:00 +20°C° 0 mm 1 m/S 748 mmHg 73%
    08:00 +22°C° 0 mm 1 m/S 748 mmHg 66%
    09:00 +24°C° 0 mm 2 m/S 748 mmHg 59%
    10:00 +25°C° 0 mm 2 m/S 747 mmHg 52%
    11:00 +26°C° 0 mm 2 m/S 747 mmHg 48%
    12:00 +27°C° 0 mm 2 m/S 747 mmHg 45%
    13:00 +28°C° 0 mm 3 m/S 747 mmHg 41%
    14:00 +29°C° 0 mm 3 m/S 746 mmHg 40%
    15:00 +29°C° 0 mm 3 m/S 746 mmHg 40%
    16:00 +29°C° 0 mm 3 m/S 746 mmHg 39%
    17:00 +28°C° 0 mm 3 m/S 746 mmHg 45%
    18:00 +27°C° 0 mm 2 m/S 746 mmHg 51%
    19:00 +26°C° 0 mm 2 m/S 745 mmHg 57%
    20:00 +24°C° 0 mm 2 m/S 745 mmHg 63%
    21:00 +21°C° 0 mm 2 m/S 746 mmHg 69%
    22:00 +20°C° 0 mm 2 m/S 746 mmHg 75%
    23:00 +19°C° 0 mm 2 m/S 745 mmHg 77%
    Mehr zeigen